Weather History for Kenai, AK

Change the Weather History Date:

Wednesday, November 14, 2012

  Actual Average Record
Temperature  
Mean Temperature 26 °F -  
Max Temperature 28 °F 28 °F 42 °F (1986)
Min Temperature 24 °F 12 °F -15 °F (1973)
Degree Days  
Heating Degree Days 39    
Moisture  
Dew Point 26 °F    
Average Humidity 92    
Maximum Humidity 100    
Minimum Humidity 86    
Precipitation  
Precipitation 0.06 in - - ()
Sea Level Pressure  
Sea Level Pressure 29.43 in    
Wind  
Wind Speed 14 mph (NNE)    
Max Wind Speed 21 mph    
Max Gust Speed 26 mph    
Visibility 4 miles    
Events Snow    
Averages and records for this station are not official NWS values.
T = Trace of Precipitation, MM = Missing Value Source: NWS Daily Summary

Daily Weather History Graph

Daily Weather History Graph

Search for Another Location

Airport:

Trip Planner

Search our weather history database for the weather conditions in past years. The results will help you decide how hot, cold, wet, or windy it might be!

Date:

Astronomy

Nov. 14, 2012 Rise Set
Actual Time 9:05 AM AKST 4:32 PM AKST
Civil Twilight 8:15 AM AKST 5:22 PM AKST
Nautical Twilight 7:22 AM AKST 6:15 PM AKST
Astronomical Twilight 6:32 AM AKST 7:05 PM AKST
Moon 10:28 AM AKST (11/14) 5:08 PM AKST (11/14)
Length of Visible Light 9h 06m
Length of Day
7h 26m
New Moon, 1% of the Moon is Illuminated
Nov 14
New Moon
Nov 20
First Quarter
Nov 28
Full
Dec 6
Last Quarter
Dec 12
New

Hourly Weather History & Observations

Time (AKST) Temp. Windchill Dew Point Humidity Pressure Visibility Wind Dir Wind Speed Gust Speed Precip Events Conditions
12:20 AM 26.6 °F 13.4 °F 24.8 °F 93% 29.61 in 5.0 mi NNE 18.4 mph - 0.00 in Snow Light Snow
12:41 AM 26.6 °F 13.1 °F 24.8 °F 93% 29.60 in 2.5 mi NNE 19.6 mph - 0.00 in Snow Light Snow
12:48 AM 28.4 °F 16.2 °F 24.8 °F 86% 29.60 in 4.0 mi NNE 17.3 mph - 0.00 in Snow Light Snow
12:53 AM 28.0 °F 15.7 °F 26.1 °F 92% 29.61 in 5.0 mi NNE 17.3 mph - 0.00 in Snow Light Snow
1:03 AM 28.4 °F 16.6 °F 24.8 °F 86% 29.60 in 3.0 mi NNE 16.1 mph - 0.01 in Snow Light Snow
1:10 AM 28.4 °F 16.6 °F 24.8 °F 86% 29.60 in 1.8 mi NNE 16.1 mph - 0.01 in Snow Light Snow
1:19 AM 28.4 °F 16.6 °F 24.8 °F 86% 29.60 in 2.0 mi NNE 16.1 mph - 0.01 in Snow Light Snow
1:53 AM 28.0 °F 16.5 °F 25.0 °F 88% 29.59 in 1.5 mi NNE 15.0 mph - 0.01 in Snow Light Snow
2:10 AM 26.6 °F 13.4 °F 24.8 °F 93% 29.57 in 3.0 mi NNE 18.4 mph - 0.00 in Snow Light Snow
2:41 AM 28.4 °F 17.5 °F 26.6 °F 93% 29.55 in 2.0 mi NNE 13.8 mph - 0.00 in Snow Light Snow
2:53 AM 28.0 °F 16.5 °F 26.1 °F 92% 29.56 in 2.5 mi NNE 15.0 mph - 0.00 in Snow Light Snow
3:02 AM 28.4 °F 16.2 °F 26.6 °F 93% 29.54 in 2.5 mi NNE 17.3 mph - 0.00 in Snow Light Snow
3:05 AM 28.4 °F 15.8 °F 26.6 °F 93% 29.53 in 3.0 mi NNE 18.4 mph - 0.00 in Snow Light Snow
3:15 AM 28.4 °F 16.2 °F 26.6 °F 93% 29.53 in 2.5 mi NNE 17.3 mph - 0.00 in Snow Light Snow
3:29 AM 28.4 °F 16.2 °F 26.6 °F 93% 29.52 in 3.0 mi NNE 17.3 mph - 0.00 in Snow Light Snow
3:42 AM 28.4 °F 16.2 °F 26.6 °F 93% 29.52 in 2.5 mi NNE 17.3 mph - 0.00 in Snow Light Snow
3:53 AM 28.0 °F 15.7 °F 26.1 °F 92% 29.52 in 2.5 mi NNE 17.3 mph - 0.00 in Snow Light Snow
4:06 AM 28.4 °F 16.2 °F 26.6 °F 93% 29.50 in 5.0 mi NNE 17.3 mph - 0.00 in Snow Light Snow
4:23 AM 28.4 °F 16.2 °F 26.6 °F 93% 29.50 in 2.0 mi NNE 17.3 mph - 0.00 in Snow Light Snow
4:35 AM 28.4 °F 16.2 °F 26.6 °F 93% 29.49 in 5.0 mi NNE 17.3 mph - 0.00 in Snow Light Snow
4:53 AM 28.9 °F 16.1 °F 26.1 °F 89% 29.49 in 9.0 mi NNE 19.6 mph - 0.00 in Snow Light Snow
5:53 AM 28.9 °F 17.3 °F 26.1 °F 89% 29.47 in 10.0 mi NNE 16.1 mph - 0.00 in   Overcast
6:53 AM 28.9 °F 17.7 °F 27.0 °F 92% 29.46 in 6.0 mi NNE 15.0 mph - 0.00 in Snow Light Snow
7:53 AM 28.9 °F 16.5 °F 27.0 °F 92% 29.43 in 9.0 mi NNE 18.4 mph 26.5 mph 0.00 in   Overcast
8:14 AM 28.4 °F 16.2 °F 26.6 °F 93% 29.41 in 9.0 mi NNE 17.3 mph - 0.00 in Snow Light Snow
8:53 AM 28.9 °F 15.8 °F 27.0 °F 92% 29.41 in 5.0 mi NNE 20.7 mph 25.3 mph 0.00 in   Overcast
9:53 AM 28.9 °F 17.3 °F 26.1 °F 89% 29.40 in 4.0 mi NNE 16.1 mph - 0.00 in   Overcast
10:53 AM 28.9 °F 18.2 °F 27.0 °F 92% 29.39 in 2.5 mi NNE 13.8 mph - 0.00 in Snow Light Snow
11:25 AM 28.4 °F 19.1 °F 26.6 °F 93% 29.37 in 1.2 mi NNE 10.4 mph - 0.01 in Snow Light Snow
11:53 AM 28.9 °F 19.2 °F 27.0 °F 92% 29.38 in 1.5 mi NNE 11.5 mph - 0.01 in Snow Light Snow
12:53 PM 28.9 °F 19.8 °F 27.0 °F 92% 29.36 in 1.5 mi NNE 10.4 mph - 0.00 in Snow Light Snow
1:53 PM 28.9 °F 19.2 °F 27.0 °F 92% 29.34 in 1.5 mi NE 11.5 mph - 0.00 in Snow Light Snow
2:00 PM 28.4 °F 19.1 °F 26.6 °F 93% 29.34 in 2.5 mi NNE 10.4 mph - 0.00 in Snow Light Snow
2:31 PM 28.4 °F 18.5 °F 26.6 °F 93% 29.32 in 2.5 mi NE 11.5 mph - 0.00 in Snow Light Snow
2:53 PM 28.9 °F 19.2 °F 26.1 °F 89% 29.32 in 2.5 mi NE 11.5 mph - 0.00 in Snow Light Snow
3:25 PM 28.4 °F 19.1 °F 26.6 °F 93% 29.31 in 4.0 mi NE 10.4 mph - 0.00 in Snow Light Snow
3:53 PM 28.9 °F 20.4 °F 26.1 °F 89% 29.32 in 3.0 mi NE 9.2 mph - 0.00 in Snow Light Snow
4:53 PM 28.0 °F 22.8 °F 27.0 °F 96% 29.31 in 1.8 mi NE 4.6 mph - 0.01 in Snow Light Snow
5:53 PM 28.0 °F 24.2 °F 26.1 °F 92% 29.32 in 2.0 mi NE 3.5 mph - 0.01 in Snow Light Snow
6:06 PM 28.4 °F - 26.6 °F 93% 29.31 in 7.0 mi Calm Calm - 0.00 in   Overcast
6:43 PM 28.4 °F - 26.6 °F 93% 29.32 in 3.0 mi Calm Calm - 0.00 in Snow Light Snow
6:53 PM 28.0 °F - 27.0 °F 96% 29.32 in 3.0 mi Calm Calm - 0.00 in Snow Light Snow
7:04 PM 28.4 °F - 26.6 °F 93% 29.32 in 5.0 mi Calm Calm - 0.00 in   Overcast
7:53 PM 28.0 °F 24.2 °F 26.1 °F 92% 29.33 in 4.0 mi North 3.5 mph - 0.00 in Snow Light Snow
8:04 PM 28.4 °F - 26.6 °F 93% 29.33 in 1.8 mi Calm Calm - 0.00 in Snow Light Snow
8:49 PM 28.4 °F 24.6 °F 26.6 °F 93% 29.33 in 2.5 mi NNE 3.5 mph - 0.01 in Snow Light Snow
8:53 PM 27.0 °F 23.0 °F 26.1 °F 96% 29.34 in 2.5 mi NNE 3.5 mph - 0.02 in Snow Light Snow
9:01 PM 26.6 °F 22.6 °F 26.6 °F 100% 29.33 in 3.0 mi NE 3.5 mph - 0.00 in Snow Light Snow
9:23 PM 24.8 °F 20.5 °F 24.8 °F 100% 29.33 in 2.5 mi NNE 3.5 mph - 0.00 in Snow Light Snow
9:28 PM 26.6 °F 22.6 °F 24.8 °F 93% 29.33 in 3.0 mi NNE 3.5 mph - 0.00 in Snow Light Snow
9:53 PM 26.1 °F 21.9 °F 25.0 °F 96% 29.34 in 5.0 mi NE 3.5 mph - 0.00 in Snow Light Snow
10:53 PM 28.0 °F 20.8 °F 26.1 °F 92% 29.35 in 10.0 mi NE 6.9 mph - 0.00 in   Overcast
11:53 PM 28.0 °F - 27.0 °F 96% 29.36 in 10.0 mi Calm Calm - N/A   Overcast